Wind_Speed
6 6 8 6 7 3 3 7 6 7 7 7 6 7 13 13 13 12 10 7 6 6 5 7 8 9 9 8 8 9 11 11 10 10 13 2 5 3 2 4 5 5 4 3
7 9 6 3 3 3 3 9 8 8 6 7 5 7 11 14 13 11 9 8 8 7 5 9 13 12 9 7 8 7 9 10 11 14 11 12 8 7 6 6 6 5 4 3
13 7 6 1 3 4 4 8 8 5 10 7 10 9 11 12 12 11 10 9 7 6 6 6 9 7 7 8 7 7 8 12 12 13 11 9 6 5 4 5 6 6 5 6
14 10 8 6 7 7 9 7 8 9 12 9 13 10 11 12 11 11 9 7 7 7 8 9 8 7 6 8 9 9 9 9 9 9 10 10 8 6 5 4 4 4 1 1
14 7 6 5 3 8 3 7 9 10 8 6 12 8 14 15 14 11 9 9 8 8 8 10 10 11 10 8 8 7 9 8 8 8 7 6 6 6 5 5 3 3 1 1
14 10 3 6 1 10 7 11 10 10 6 11 10 8 14 17 16 13 10 9 9 8 7 9 8 4 3 6 7 5 6 8 7 6 5 5 5 5 5 4 3 1 1 4
17 12 9 6 8 11 10 15 11 9 8 3 6 7 3 9 17 13 12 10 7 9 8 8 8 7 8 8 9 8 7 6 6 5 4 2 2 2 3 2 2 3 6 7
23 20 16 14 8 5 11 13 9 2 4 10 6 6 6 8 18 15 13 10 10 9 9 9 9 8 9 9 7 6 5 6 5 5 5 3 2 2 2 3 4 6 8 10
26 18 17 13 11 8 12 10 6 4 2 7 9 4 3 11 18 16 15 12 11 12 10 10 11 10 8 7 6 5 4 4 4 4 3 3 3 4 5 6 7 10 13 14
17 21 15 13 9 12 10 9 8 9 5 4 7 5 11 18 20 18 18 12 13 13 10 10 7 8 7 6 4 3 2 1 1 2 4 5 6 6 7 8 9 11 13 14
27 23 16 14 17 13 12 12 8 1 7 1 5 7 10 20 20 19 16 15 15 15 11 11 9 7 5 3 1 1 1 2 2 3 4 5 6 6 8 10 13 15 17 17
34 22 19 21 16 15 15 13 13 12 7 6 5 9 15 18 21 19 18 19 18 17 14 11 10 5 2 2 2 3 3 3 3 3 4 5 7 9 12 15 16 17 17 18
36 31 26 14 12 10 17 15 14 11 3 7 6 14 17 20 21 19 20 21 20 17 16 11 8 4 6 5 5 5 4 4 6 8 9 11 13 14 16 17 19 20 19 18
36 33 30 25 21 19 18 17 15 11 12 8 9 24 21 23 24 22 21 20 18 18 14 9 8 7 3 2 5 7 9 10 12 14 14 15 15 16 16 16 16 15 15 15
35 36 32 24 13 16 19 18 15 16 14 11 11 20 26 25 24 22 20 19 17 15 12 12 8 5 3 1 5 8 11 13 14 15 14 13 12 11 10 11 13 13 12 11
30 33 36 29 22 14 17 18 14 16 12 12 12 18 26 25 22 20 22 21 18 15 16 12 8 3 3 5 8 11 13 14 15 13 11 9 8 8 10 11 11 10 10 10
23 32 32 35 31 25 25 22 17 16 13 13 17 18 24 29 27 23 19 21 20 19 16 10 5 3 6 9 11 12 13 14 11 8 6 6 7 9 9 9 8 8 9 9
19 22 31 31 28 28 29 26 22 19 14 18 15 21 26 29 25 22 20 19 20 21 20 17 11 8 10 12 11 12 11 8 5 4 5 7 8 9 9 8 8 8 8 8
25 24 24 27 35 25 27 26 26 20 19 18 19 14 25 25 25 27 23 25 21 19 19 17 12 12 13 11 10 9 7 5 4 5 6 7 9 10 9 9 8 8 9 10
27 24 26 24 32 29 31 25 22 19 23 20 26 21 24 31 28 27 22 21 22 20 18 16 12 13 9 8 6 5 3 2 3 4 5 7 7 7 7 6 7 8 9 10
34 32 33 33 28 32 31 28 23 24 20 19 22 26 25 27 25 23 23 20 23 22 19 17 13 7 5 3 2 1 1 1 2 4 6 7 8 8 7 6 6 8 9 10
39 34 36 37 30 28 32 28 29 31 22 12 12 16 21 24 30 24 23 22 19 22 23 17 13 7 5 4 5 4 5 5 4 5 6 7 7 6 6 6 8 9 9 9
37 43 40 41 40 15 33 33 29 24 20 18 13 11 21 24 30 28 26 21 21 21 20 19 11 8 8 9 10 9 8 7 6 6 7 7 8 8 8 8 9 9 9 10
31 32 42 33 35 37 16 23 28 29 25 23 18 16 17 20 33 33 30 22 24 25 22 19 13 13 13 12 11 10 10 9 9 9 9 8 8 8 9 9 9 10 10 10
18 31 35 38 34 30 35 24 22 24 30 23 25 21 19 20 35 34 31 26 25 25 26 19 15 15 12 8 6 5 7 8 7 7 7 8 8 8 9 9 10 9 10 11
28 19 37 38 35 39 35 39 28 25 31 33 31 26 24 22 37 35 33 29 25 24 25 20 18 16 11 6 4 2 2 4 6 8 10 11 11 11 9 10 10 10 10 12
Wind_Direction
207 195 183 173 203 216 325 192 157 147 156 145 152 145 164 166 161 158 158 154 156 167 179 159 138 128 121 117 115 110 114 125 133 132 118 163 155 147 150 144 155 166 173 200
199 199 172 192 221 215 242 174 161 156 160 151 167 150 169 169 165 160 155 142 134 133 137 162 144 128 121 127 127 122 112 115 115 146 145 142 163 159 169 165 164 166 167 187
196 173 184 204 243 218 163 179 185 181 163 167 152 149 159 170 169 170 171 169 169 175 156 120 134 134 126 107 127 129 129 121 126 131 157 167 171 168 182 172 153 146 155 162
212 222 243 257 262 220 171 186 186 182 172 157 199 150 184 180 173 177 167 159 148 148 140 152 142 127 130 128 112 119 117 111 123 134 143 158 164 155 160 161 139 123 129 112
201 204 252 249 207 195 162 179 185 181 192 188 209 267 166 186 187 182 171 169 162 157 153 145 142 124 101 110 119 116 117 113 107 110 122 131 139 137 115 97 87 78 56 318
209 214 193 179 289 167 158 154 156 172 186 224 167 254 158 191 187 180 175 171 171 173 181 185 183 193 159 136 125 151 134 123 121 122 121 117 116 119 125 123 123 171 270 284
207 209 210 140 111 149 154 166 154 193 200 55 165 208 20 180 183 180 171 165 168 175 180 184 168 155 148 155 140 132 144 143 139 131 121 110 104 116 147 171 218 249 263 279
203 195 208 219 210 202 189 218 280 238 202 137 152 217 130 183 178 176 166 172 162 161 156 163 161 164 144 127 118 126 130 126 121 131 135 140 158 203 239 259 281 284 286 294
199 212 189 207 227 208 204 219 250 248 186 219 158 196 150 160 170 173 177 168 158 160 165 172 178 158 147 147 156 142 138 143 150 160 179 197 220 252 277 297 300 296 299 301
206 208 210 215 232 220 213 202 211 218 179 217 148 201 134 166 168 167 166 171 168 167 173 174 182 176 178 179 170 152 151 162 347 341 333 321 315 308 308 312 304 300 296 302
209 211 192 207 221 215 207 220 234 265 269 192 178 148 173 168 171 168 168 164 164 170 185 184 188 194 207 215 243 287 12 4 4 353 340 328 322 319 315 312 307 308 303 304
207 216 208 219 219 217 218 225 214 223 169 274 311 109 161 159 161 162 162 167 168 185 194 196 211 204 206 142 129 102 81 61 32 359 334 319 308 305 306 305 307 306 305 303
205 219 225 185 216 212 214 214 214 219 231 192 218 141 160 162 162 163 166 173 180 188 201 210 217 210 143 113 82 64 44 9 343 330 324 318 313 307 304 302 303 306 308 308
207 214 220 205 215 211 207 209 212 214 212 175 236 146 168 170 168 163 173 180 178 189 202 208 184 162 137 53 9 357 349 338 328 324 317 310 304 299 298 300 303 308 308 307
202 215 217 223 222 208 208 205 212 223 237 260 190 170 174 169 168 172 182 187 187 195 196 174 168 153 148 306 317 322 324 318 313 310 305 300 298 300 304 306 309 313 320 325
204 218 215 221 218 210 214 208 217 227 241 230 215 182 184 176 170 180 191 192 190 182 180 176 171 192 277 305 312 309 307 308 309 307 306 305 307 312 318 325 329 332 332 340
202 209 210 220 218 224 231 222 221 226 233 203 187 176 179 182 186 187 186 197 204 210 202 189 197 258 281 295 297 299 303 305 306 303 303 310 316 321 326 330 333 341 349 348
203 202 213 218 216 225 231 221 222 228 229 209 198 189 186 185 188 193 202 208 209 215 221 224 230 247 279 289 291 296 300 300 301 308 317 323 329 333 336 342 351 353 348 346
200 206 214 213 222 218 227 218 217 218 225 219 195 178 175 183 191 205 209 214 215 218 219 221 227 257 273 282 287 292 299 309 318 326 326 328 330 334 339 340 340 340 340 343
202 203 211 215 229 217 215 215 217 220 239 214 201 203 200 190 199 204 208 217 213 217 216 214 232 251 265 271 278 288 307 323 327 325 325 333 335 336 337 335 333 333 337 335
195 200 209 217 222 229 218 215 213 215 221 213 208 215 206 203 202 205 204 217 213 214 214 216 230 226 231 232 251 300 349 25 4 348 345 346 344 339 329 321 321 322 324 323
191 191 205 213 218 231 211 207 208 208 222 218 217 200 191 187 201 199 203 214 214 217 217 218 201 201 172 142 126 109 78 54 27 2 354 345 337 332 321 316 318 324 329 331
204 206 205 210 208 204 210 214 216 209 222 222 215 214 200 203 198 197 202 206 213 214 219 200 191 190 164 133 115 98 82 63 42 20 359 348 344 338 331 323 324 331 339 342
212 213 215 215 214 217 202 205 219 215 206 227 227 227 213 214 194 191 201 205 216 213 211 192 193 171 148 131 108 90 73 57 40 24 6 352 347 341 333 325 330 336 340 343
217 206 209 220 223 220 219 215 212 220 218 224 221 215 234 216 191 197 200 198 210 213 195 193 189 175 163 144 119 92 63 42 31 12 1 350 343 339 331 326 327 328 335 335
215 207 209 214 221 220 223 218 219 223 218 220 232 226 241 215 194 195 205 206 210 208 194 198 191 186 179 177 175 128 50 358 5 7 0 350 343 335 326 321 322 327 327 327
Height
3184 3186 3183 3186 3186 3186 3187 3188 3190 3192 3192 3194 3196 3197 3198 3200 3201 3203 3204 3205 3205 3206 3206 3205 3205 3205 3205 3204 3204 3203 3204 3204 3204 3205 3208 3209 3210 3211 3211 3213 3214 3214 3215 3216
3185 3182 3184 3185 3186 3186 3187 3188 3190 3192 3192 3194 3195 3197 3198 3200 3202 3203 3204 3205 3205 3206 3207 3205 3205 3206 3207 3206 3205 3205 3205 3205 3205 3205 3208 3209 3210 3211 3213 3213 3213 3213 3214 3215
3181 3182 3183 3184 3185 3186 3186 3186 3189 3190 3191 3193 3195 3198 3199 3201 3201 3202 3204 3205 3206 3207 3207 3207 3207 3208 3208 3208 3207 3207 3207 3207 3207 3207 3209 3210 3210 3211 3212 3212 3212 3213 3214 3214
3181 3182 3182 3183 3183 3184 3183 3187 3188 3190 3191 3191 3191 3189 3198 3199 3201 3202 3203 3205 3206 3207 3207 3208 3208 3208 3208 3209 3209 3209 3209 3209 3209 3209 3210 3211 3211 3211 3212 3213 3214 3215 3216 3217
3179 3179 3180 3181 3181 3182 3183 3185 3188 3189 3190 3191 3192 3186 3190 3196 3199 3201 3203 3205 3206 3207 3208 3208 3209 3209 3210 3210 3211 3211 3211 3211 3211 3212 3212 3213 3214 3213 3214 3214 3215 3216 3215 3215
3175 3176 3179 3179 3178 3181 3182 3185 3188 3189 3189 3183 3185 3186 3186 3192 3196 3199 3202 3204 3206 3208 3209 3210 3210 3210 3211 3211 3212 3212 3212 3212 3212 3212 3213 3214 3214 3214 3214 3215 3215 3215 3215 3215
3173 3176 3176 3178 3179 3180 3182 3183 3182 3182 3183 3175 3186 3188 3185 3189 3194 3198 3201 3203 3205 3207 3208 3210 3210 3211 3211 3212 3212 3213 3212 3213 3213 3213 3214 3215 3215 3215 3215 3216 3215 3215 3215 3214
3168 3172 3174 3175 3179 3180 3181 3178 3177 3174 3173 3174 3186 3183 3184 3188 3192 3197 3201 3203 3205 3207 3209 3211 3211 3211 3212 3212 3213 3213 3214 3214 3214 3214 3214 3214 3215 3215 3215 3215 3215 3215 3214 3213
3164 3168 3171 3174 3175 3179 3179 3180 3178 3176 3178 3173 3179 3183 3185 3187 3192 3196 3200 3203 3205 3208 3209 3210 3211 3212 3213 3214 3214 3214 3214 3214 3214 3215 3215 3215 3215 3215 3215 3216 3216 3215 3214 3213
3162 3166 3168 3170 3172 3174 3177 3177 3177 3176 3173 3168 3176 3179 3179 3186 3190 3195 3199 3202 3206 3208 3209 3210 3212 3213 3213 3214 3215 3215 3216 3216 3216 3216 3215 3215 3215 3214 3214 3214 3213 3213 3211 3210
3158 3161 3166 3167 3169 3170 3174 3175 3175 3173 3172 3165 3168 3173 3179 3184 3189 3194 3198 3202 3205 3208 3209 3211 3212 3213 3214 3215 3215 3216 3216 3216 3217 3217 3216 3216 3215 3214 3213 3212 3211 3210 3208 3207
3154 3158 3158 3162 3164 3167 3169 3170 3172 3170 3171 3169 3165 3174 3180 3184 3189 3194 3198 3201 3204 3206 3209 3211 3212 3214 3215 3215 3215 3216 3216 3216 3216 3216 3215 3215 3214 3213 3212 3210 3209 3207 3205 3204
3150 3153 3153 3157 3163 3163 3166 3168 3168 3168 3169 3170 3164 3176 3182 3185 3189 3194 3198 3199 3203 3206 3209 3211 3212 3213 3214 3215 3215 3215 3215 3215 3215 3214 3213 3212 3210 3209 3208 3206 3205 3202 3200 3198
3144 3148 3146 3150 3154 3158 3162 3164 3167 3168 3167 3166 3167 3172 3181 3185 3189 3193 3196 3199 3203 3206 3209 3211 3212 3213 3214 3214 3214 3214 3214 3213 3213 3211 3210 3209 3207 3206 3204 3202 3200 3198 3196 3194
3139 3142 3145 3148 3150 3153 3158 3161 3164 3166 3166 3164 3167 3171 3178 3184 3188 3192 3195 3199 3202 3205 3208 3210 3212 3213 3213 3214 3214 3213 3212 3212 3210 3209 3207 3205 3204 3203 3201 3199 3197 3195 3193 3190
3135 3138 3143 3145 3149 3153 3154 3157 3160 3163 3165 3166 3165 3169 3176 3183 3188 3191 3193 3197 3201 3204 3207 3209 3211 3212 3212 3212 3212 3212 3211 3209 3207 3205 3204 3203 3201 3200 3199 3197 3195 3193 3191 3189
3130 3134 3137 3138 3146 3150 3151 3153 3157 3160 3162 3165 3165 3168 3174 3180 3185 3189 3192 3196 3199 3202 3205 3207 3209 3210 3211 3211 3210 3209 3208 3207 3205 3203 3202 3201 3199 3198 3196 3195 3193 3191 3189 3188
3125 3130 3133 3136 3143 3138 3143 3149 3153 3156 3159 3163 3165 3167 3172 3178 3183 3188 3191 3194 3197 3200 3203 3205 3207 3209 3209 3209 3208 3207 3206 3204 3203 3201 3200 3198 3197 3196 3195 3193 3191 3190 3188 3186
3119 3127 3129 3131 3129 3137 3139 3143 3148 3152 3156 3159 3164 3167 3172 3178 3182 3184 3187 3190 3193 3197 3200 3204 3206 3207 3207 3207 3205 3204 3203 3202 3201 3201 3200 3198 3197 3196 3194 3192 3190 3188 3186 3185
3116 3120 3126 3125 3125 3123 3134 3140 3145 3150 3150 3154 3159 3163 3167 3171 3176 3180 3183 3186 3191 3195 3199 3201 3203 3205 3205 3204 3203 3202 3201 3201 3201 3200 3199 3198 3197 3195 3193 3192 3190 3188 3186 3184
3107 3113 3115 3120 3121 3123 3130 3136 3141 3145 3149 3150 3154 3158 3162 3167 3174 3177 3181 3184 3188 3192 3196 3199 3202 3203 3202 3201 3201 3200 3200 3200 3199 3198 3197 3196 3195 3194 3192 3190 3189 3187 3185 3183
3094 3101 3106 3115 3119 3118 3125 3131 3133 3141 3144 3147 3149 3153 3158 3164 3168 3173 3178 3181 3185 3189 3192 3196 3199 3200 3200 3200 3200 3199 3199 3199 3198 3197 3196 3195 3193 3192 3190 3189 3187 3185 3184 3182
3092 3091 3098 3103 3107 3115 3120 3126 3130 3136 3139 3143 3146 3149 3153 3157 3163 3170 3175 3179 3183 3187 3190 3194 3196 3198 3199 3199 3199 3199 3198 3198 3197 3196 3195 3193 3192 3190 3188 3187 3185 3183 3182 3180
3085 3090 3093 3102 3104 3110 3116 3121 3126 3131 3138 3139 3142 3145 3149 3153 3157 3164 3170 3175 3179 3183 3187 3191 3194 3196 3197 3197 3198 3197 3197 3196 3195 3194 3192 3190 3189 3187 3186 3185 3183 3181 3180 3178
3078 3083 3086 3093 3100 3106 3110 3115 3120 3125 3131 3135 3138 3141 3146 3149 3153 3160 3165 3170 3175 3180 3184 3188 3191 3193 3195 3195 3196 3196 3195 3194 3193 3191 3189 3188 3186 3184 3183 3182 3181 3180 3178 3177
3071 3076 3079 3082 3091 3096 3103 3110 3116 3120 3124 3130 3133 3137 3141 3145 3151 3155 3161 3167 3172 3177 3181 3185 3188 3190 3192 3193 3194 3194 3193 3192 3191 3190 3188 3187 3185 3183 3181 3180 3179 3178 3176 3175